WE0DX-1 Weather Reports


time (UTC)temp
C
wind
direction
speed
KPH
gust
KPH
rain 1hr
cm
rain 24hr
cm
rain mn
cm
humidity
%
barometer
mb
20260906175002 35 109 0.0 0.0 0.00 0.00 0.00 55 1014.9
20260906174501 34 49 0.0 0.0 0.00 0.00 0.00 56 1015.0
20260906173956 34 111 0.0 1.6 0.00 0.00 0.00 56 1015.0
20260906173451 34 72 0.0 0.0 0.00 0.00 0.00 54 1015.1
20260906172951 34 75 0.0 0.0 0.00 0.00 0.00 57 1015.0
20260906172447 35 131 0.0 0.0 0.00 0.00 0.00 55 1015.3
20260906171942 35 61 0.0 1.6 0.00 0.00 0.00 56 1015.3
20260906171437 35 143 0.0 0.0 0.00 0.00 0.00 56 1015.3
20260906170932 34 50 0.0 1.6 0.00 0.00 0.00 58 1015.2
20260906170428 35 114 0.0 0.0 0.00 0.00 0.00 57 1015.4
20260906165925 33 81 0.0 0.0 0.00 0.00 0.00 58 1015.4
20260906165424 34 39 0.0 3.2 0.00 0.00 0.00 57 1015.7
20260906164920 34 110 0.0 0.0 0.00 0.00 0.00 58 1015.7
20260906164418 34 100 0.0 0.0 0.00 0.00 0.00 59 1015.7
20260906163915 34 86 0.0 0.0 0.00 0.00 0.00 59 1015.6
20260906163410 34 66 0.0 0.0 0.00 0.00 0.00 58 1015.6
20260906162908 33 144 0.0 0.0 0.00 0.00 0.00 59 1015.7
20260906162407 33 71 0.0 0.0 0.00 0.00 0.00 59 1015.7
20260906161903 32 122 0.0 0.0 0.00 0.00 0.00 61 1015.8
20260906161401 32 174 0.0 0.0 0.00 0.00 0.00 62 1015.7
20260906160901 32 71 0.0 0.0 0.00 0.00 0.00 62 1015.8
20260906160355 32 69 1.6 3.2 0.00 0.00 0.00 61 1015.9
20260906155853 32 166 0.0 0.0 0.00 0.00 0.00 63 1015.7
20260906155347 32 103 0.0 0.0 0.00 0.00 0.00 63 1015.8
20260906154844 32 70 0.0 0.0 0.00 0.00 0.00 64 1015.7
20260906154337 32 47 0.0 1.6 0.00 0.00 0.00 63 1015.6
20260906153836 32 94 0.0 0.0 0.00 0.00 0.00 64 1015.4
20260906153336 32 97 0.0 1.6 0.00 0.00 0.00 65 1015.3
20260906152831 31 119 0.0 0.0 0.00 0.00 0.00 67 1015.4
20260906152326 31 75 0.0 0.0 0.00 0.00 0.00 67 1015.5
20260906151825 31 120 0.0 0.0 0.00 0.00 0.00 67 1015.4
20260906151321 30 65 0.0 0.0 0.00 0.00 0.00 69 1015.5
20260906150816 30 114 0.0 0.0 0.00 0.00 0.00 69 1015.4
20260906150312 31 64 0.0 0.0 0.00 0.00 0.00 70 1015.3
20260906145811 30 129 0.0 0.0 0.00 0.00 0.00 70 1015.6
20260906145309 30 77 0.0 0.0 0.00 0.00 0.00 70 1015.4
20260906144805 29 83 0.0 0.0 0.00 0.00 0.00 72 1015.5
20260906144259 29 65 0.0 0.0 0.00 0.00 0.00 72 1015.5
20260906143759 28 124 0.0 0.0 0.00 0.00 0.00 73 1015.5
20260906143256 28 72 1.6 3.2 0.00 0.00 0.00 73 1015.7
20260906142755 28 57 0.0 0.0 0.00 0.00 0.00 74 1015.8
20260906142251 28 86 0.0 3.2 0.00 0.00 0.00 73 1015.7
20260906141750 28 120 0.0 1.6 0.00 0.00 0.00 73 1015.4
20260906141245 28 92 0.0 1.6 0.00 0.00 0.00 74 1015.5
20260906140744 28 88 0.0 4.8 0.00 0.00 0.00 75 1015.7
20260906140239 28 59 0.0 3.2 0.00 0.00 0.00 74 1015.5
20260906135735 28 72 4.8 4.8 0.00 0.00 0.00 73 1015.7
20260906135232 28 63 3.2 3.2 0.00 0.00 0.00 74 1015.5
20260906134727 27 93 0.0 0.0 0.00 0.00 0.00 75 1015.4
20260906134223 27 70 1.6 3.2 0.00 0.00 0.00 76 1015.5
20260906133718 27 74 0.0 0.0 0.00 0.00 0.00 76 1015.4
20260906133213 27 84 0.0 1.6 0.00 0.00 0.00 77 1015.3
20260906132708 27 119 0.0 0.0 0.00 0.00 0.00 77 1015.3
20260906132204 26 68 0.0 1.6 0.00 0.00 0.00 77 1015.2
20260906131700 26 70 0.0 1.6 0.00 0.00 0.00 78 1015.2
20260906131154 26 89 0.0 0.0 0.00 0.00 0.00 79 1014.9
20260906130650 26 73 0.0 1.6 0.00 0.00 0.00 79 1014.9
20260906130145 26 59 0.0 0.0 0.00 0.00 0.00 79 1015.0
20260906125642 26 53 0.0 0.0 0.00 0.00 0.00 79 1015.0
20260906125136 26 73 0.0 0.0 0.00 0.00 0.00 79 1014.9
20260906124632 26 58 0.0 0.0 0.00 0.00 0.00 80 1014.8
20260906124127 26 54 0.0 1.6 0.00 0.00 0.00 80 1014.8
20260906123626 26 76 0.0 0.0 0.00 0.00 0.00 80 1014.8
20260906123121 25 71 0.0 0.0 0.00 0.00 0.00 80 1014.6
20260906122621 25 72 0.0 0.0 0.00 0.00 0.00 80 1014.7
20260906122116 25 75 0.0 1.6 0.00 0.00 0.00 81 1014.6
20260906121612 25 69 0.0 0.0 0.00 0.00 0.00 81 1014.4
20260906121109 25 79 0.0 0.0 0.00 0.00 0.00 81 1014.5
20260906120604 25 84 0.0 0.0 0.00 0.00 0.00 81 1014.4
20260906120101 25 85 0.0 0.0 0.00 0.00 0.00 81 1014.6
20260906115600 25 75 0.0 0.0 0.00 0.00 0.00 81 1014.3
20260906115055 25 65 0.0 0.0 0.00 0.00 0.00 81 1014.4
20260906114549 25 75 0.0 0.0 0.00 0.00 0.00 81 1014.3
20260906114045 25 72 0.0 0.0 0.00 0.00 0.00 82 1014.2
20260906113545 25 76 0.0 0.0 0.00 0.00 0.00 82 1014.2
20260906113040 25 74 0.0 0.0 0.00 0.00 0.00 82 1014.1
20260906112540 25 74 0.0 0.0 0.00 0.00 0.00 82 1014.1
20260906112037 25 73 0.0 0.0 0.00 0.00 0.00 82 1014.1
20260906111536 25 68 0.0 0.0 0.00 0.00 0.00 83 1014.0
20260906111031 25 80 0.0 0.0 0.00 0.00 0.00 83 1014.0
20260906110525 25 68 0.0 0.0 0.00 0.00 0.00 83 1014.1
20260906110025 25 79 0.0 0.0 0.00 0.00 0.00 83 1013.9
20260906105520 25 77 0.0 0.0 0.00 0.00 0.00 83 1014.0
20260906105016 25 79 0.0 0.0 0.00 0.00 0.00 82 1013.9
20260906104515 25 73 0.0 0.0 0.00 0.00 0.00 83 1013.9
20260906104015 25 87 0.0 0.0 0.00 0.00 0.00 82 1013.8
20260906103513 25 70 0.0 0.0 0.00 0.00 0.00 82 1013.8
20260906103009 25 68 0.0 0.0 0.00 0.00 0.00 81 1013.9
20260906102508 25 78 0.0 0.0 0.00 0.00 0.00 81 1013.8
20260906102003 25 78 0.0 0.0 0.00 0.00 0.00 80 1014.3
20260906101457 26 67 0.0 0.0 0.00 0.00 0.00 80 1013.9
20260906100953 26 63 0.0 0.0 0.00 0.00 0.00 80 1014.2
20260906100448 26 70 0.0 0.0 0.00 0.00 0.00 79 1014.1
20260906095948 26 50 0.0 0.0 0.00 0.00 0.00 79 1013.8
20260906095443 26 72 0.0 0.0 0.00 0.00 0.00 79 1014.0
20260906094938 26 70 0.0 0.0 0.00 0.00 0.00 78 1013.9
20260906094433 26 69 0.0 0.0 0.00 0.00 0.00 78 1013.7
20260906093929 26 82 0.0 0.0 0.00 0.00 0.00 78 1014.0
20260906093425 26 79 0.0 0.0 0.00 0.00 0.00 78 1013.7
20260906092925 26 76 0.0 0.0 0.00 0.00 0.00 78 1013.7
20260906092424 26 77 0.0 0.0 0.00 0.00 0.00 77 1013.7
20260906091920 26 75 0.0 0.0 0.00 0.00 0.00 77 1013.6
20260906091416 26 73 0.0 0.0 0.00 0.00 0.00 77 1013.8
20260906090912 26 86 0.0 0.0 0.00 0.00 0.00 77 1013.5
20260906090411 26 78 0.0 0.0 0.00 0.00 0.00 77 1013.6
20260906085906 26 73 0.0 0.0 0.00 0.00 0.00 77 1013.4
20260906085405 26 75 0.0 0.0 0.00 0.00 0.00 77 1013.3
20260906084900 26 88 0.0 0.0 0.00 0.00 0.00 77 1013.5
20260906084400 26 88 0.0 0.0 0.00 0.00 0.00 76 1013.4
20260906083854 26 89 0.0 0.0 0.00 0.00 0.00 76 1013.1
20260906083349 26 85 0.0 0.0 0.00 0.00 0.00 76 1013.4
20260906082849 26 84 0.0 0.0 0.00 0.00 0.00 75 1013.4
20260906082344 26 87 0.0 0.0 0.00 0.00 0.00 75 1013.1
20260906081841 26 87 0.0 0.0 0.00 0.00 0.00 74 1013.4
20260906081336 27 85 0.0 0.0 0.00 0.00 0.00 73 1013.3
20260906080832 27 90 0.0 0.0 0.00 0.00 0.00 72 1013.3
20260906080328 27 103 0.0 0.0 0.00 0.00 0.00 72 1013.4
20260906075827 27 89 0.0 0.0 0.00 0.00 0.00 72 1013.3
20260906075322 27 78 0.0 0.0 0.00 0.00 0.00 72 1013.3
20260906074818 27 79 0.0 0.0 0.00 0.00 0.00 71 1013.4
20260906074317 27 73 0.0 0.0 0.00 0.00 0.00 71 1013.4
20260906073816 27 69 0.0 0.0 0.00 0.00 0.00 71 1013.5
20260906073311 27 69 0.0 0.0 0.00 0.00 0.00 71 1013.2
20260906072808 27 70 0.0 0.0 0.00 0.00 0.00 71 1013.3
20260906072305 27 75 0.0 0.0 0.00 0.00 0.00 70 1013.3
20260906071759 27 57 0.0 0.0 0.00 0.00 0.00 71 1013.3
20260906071259 27 71 0.0 0.0 0.00 0.00 0.00 71 1013.6
20260906070755 27 65 0.0 0.0 0.00 0.00 0.00 71 1013.3
20260906070250 27 70 0.0 0.0 0.00 0.00 0.00 71 1013.4
20260906065749 27 67 0.0 0.0 0.00 0.00 0.00 70 1013.5
20260906065245 27 78 0.0 0.0 0.00 0.00 0.00 71 1013.5
20260906064741 27 80 0.0 0.0 0.00 0.00 0.00 69 1013.7
20260906064236 28 73 0.0 0.0 0.00 0.00 0.00 69 1013.6
20260906063731 28 70 0.0 0.0 0.00 0.00 0.00 68 1013.8
20260906063227 28 63 0.0 0.0 0.00 0.00 0.00 68 1013.8
20260906062722 28 69 0.0 0.0 0.00 0.00 0.00 68 1013.8
20260906062221 28 68 0.0 0.0 0.00 0.00 0.00 68 1013.8
20260906061717 28 57 0.0 0.0 0.00 0.00 0.00 68 1013.8
20260906061213 28 68 0.0 0.0 0.00 0.00 0.00 68 1013.8
20260906060708 28 69 0.0 0.0 0.00 0.00 0.00 67 1013.7
20260906060206 28 76 0.0 0.0 0.00 0.00 0.00 67 1013.7
20260906055655 28 78 0.0 0.0 0.00 0.00 0.00 67 1013.8
20260906055151 28 77 0.0 0.0 0.00 0.00 0.00 67 1013.8
20260906054646 28 90 0.0 0.0 0.00 0.00 0.00 66 1014.0
20260906054141 28 88 0.0 0.0 0.00 0.00 0.00 67 1013.7
20260906053637 28 76 0.0 0.0 0.00 0.00 0.00 66 1014.2
20260906053132 28 71 0.0 0.0 0.00 0.00 0.00 67 1014.0
20260906052627 28 71 0.0 0.0 0.00 0.00 0.00 67 1013.7
20260906052124 28 71 0.0 0.0 0.00 0.00 0.00 67 1014.1
20260906051620 28 71 0.0 0.0 0.00 0.00 0.00 66 1014.0
20260906051115 28 71 0.0 0.0 0.00 0.00 0.00 66 1013.7
20260906050610 28 70 0.0 0.0 0.00 0.00 0.00 66 1013.7
20260906050105 28 77 0.0 0.0 0.00 0.00 0.00 66 1013.9
20260906045603 28 83 0.0 0.0 0.00 0.00 0.00 65 1013.8
20260906045059 28 76 0.0 0.0 0.00 0.00 0.00 65 1013.8
20260906044554 28 85 0.0 0.0 0.00 0.00 0.00 65 1013.6
20260906044049 28 94 0.0 0.0 0.00 0.00 0.00 65 1013.6
20260906043545 28 76 0.0 0.0 0.00 0.00 0.00 65 1013.7
20260906043041 29 89 0.0 0.0 0.00 0.00 0.00 64 1013.8
20260906042540 29 86 0.0 0.0 0.00 0.00 0.00 64 1013.8
20260906042035 29 69 0.0 0.0 0.00 0.00 0.00 64 1013.6
20260906041531 29 73 0.0 0.0 0.00 0.00 0.00 64 1013.6
20260906041025 29 73 0.0 0.0 0.00 0.00 0.00 64 1013.7
20260906040520 29 73 0.0 0.0 0.00 0.00 0.00 63 1013.6
20260906040016 29 73 0.0 0.0 0.00 0.00 0.00 64 1013.8
20260906035510 30 73 0.0 0.0 0.00 0.00 0.00 63 1013.5
20260906035007 30 73 0.0 0.0 0.00 0.00 0.00 62 1013.5
20260906034501 30 73 0.0 0.0 0.00 0.00 0.00 61 1013.4
20260906033956 30 71 0.0 0.0 0.00 0.00 0.00 62 1013.4
20260906033450 30 69 0.0 0.0 0.00 0.00 0.00 61 1013.2
20260906032946 30 72 0.0 0.0 0.00 0.00 0.00 61 1013.2
20260906032442 30 70 0.0 0.0 0.00 0.00 0.00 61 1013.2
20260906031936 30 77 0.0 0.0 0.00 0.00 0.00 62 1013.4
20260906031432 30 78 0.0 0.0 0.00 0.00 0.00 61 1013.2
20260906030927 30 70 0.0 0.0 0.00 0.00 0.00 61 1013.3
20260906030422 30 70 0.0 0.0 0.00 0.00 0.00 61 1013.2
20260906025917 30 72 0.0 0.0 0.00 0.00 0.00 61 1013.0
20260906025411 30 73 0.0 0.0 0.00 0.00 0.00 61 1013.0
20260906024910 30 70 0.0 0.0 0.00 0.00 0.00 61 1012.7
20260906024409 30 71 0.0 0.0 0.00 0.00 0.00 61 1013.0
20260906023904 30 71 0.0 1.6 0.00 0.00 0.00 61 1012.8
20260906023400 31 69 0.0 0.0 0.00 0.00 0.00 61 1012.8
20260906022855 31 64 0.0 0.0 0.00 0.00 0.00 60 1012.7
20260906022350 31 60 0.0 1.6 0.00 0.00 0.00 60 1012.7
20260906021846 31 64 0.0 1.6 0.00 0.00 0.00 61 1012.3
20260906021345 31 62 0.0 0.0 0.00 0.00 0.00 60 1012.5
20260906020840 31 73 0.0 0.0 0.00 0.00 0.00 60 1012.5
20260906020339 31 60 0.0 0.0 0.00 0.00 0.00 60 1012.5
20260906015834 31 67 0.0 0.0 0.00 0.00 0.00 61 1012.3
20260906015332 31 77 0.0 0.0 0.00 0.00 0.00 61 1012.3
20260906014827 31 48 0.0 0.0 0.00 0.00 0.00 60 1012.4
20260906014322 31 69 0.0 0.0 0.00 0.00 0.00 60 1011.9
20260906013819 31 71 0.0 0.0 0.00 0.00 0.00 60 1012.2
20260906013313 31 48 0.0 0.0 0.00 0.00 0.00 60 1012.0
20260906012809 31 75 0.0 0.0 0.00 0.00 0.00 60 1012.0
20260906012309 31 71 0.0 0.0 0.00 0.00 0.00 60 1011.9
20260906011804 31 67 0.0 0.0 0.00 0.00 0.00 61 1012.0
20260906011304 31 64 0.0 0.0 0.00 0.00 0.00 60 1011.9
20260906010800 31 75 0.0 0.0 0.00 0.00 0.00 60 1012.2
20260906010256 32 71 0.0 0.0 0.00 0.00 0.00 59 1011.8
20260906005751 32 68 0.0 0.0 0.00 0.00 0.00 60 1011.8
20260906005250 32 64 0.0 0.0 0.00 0.00 0.00 59 1012.1
20260906004749 32 67 0.0 0.0 0.00 0.00 0.00 59 1012.0
20260906004244 32 68 0.0 0.0 0.00 0.00 0.00 57 1012.1
20260906003739 32 68 0.0 0.0 0.00 0.00 0.00 56 1012.1
20260906003235 32 68 0.0 0.0 0.00 0.00 0.00 56 1012.0
20260906002734 33 68 0.0 0.0 0.00 0.00 0.00 55 1012.0
20260906002229 33 68 0.0 0.0 0.00 0.00 0.00 55 1011.9
20260906001725 33 68 0.0 0.0 0.00 0.00 0.00 55 1011.8
20260906001220 33 68 0.0 0.0 0.00 0.00 0.00 56 1012.0
20260906000715 33 68 0.0 0.0 0.00 0.00 0.00 55 1012.0
20260906000212 33 68 0.0 0.0 0.00 0.00 0.00 56 1012.0
20260905235709 33 68 0.0 0.0 0.00 0.00 0.00 55 1012.0
20260905235204 33 69 0.0 0.0 0.00 0.00 0.00 53 1011.7
20260905234700 33 69 0.0 0.0 0.00 0.00 0.00 54 1011.9
20260905234155 33 68 0.0 0.0 0.00 0.00 0.00 53 1011.9
20260905233650 34 69 0.0 0.0 0.00 0.00 0.00 54 1011.8
20260905233149 34 69 0.0 0.0 0.00 0.00 0.00 53 1011.7
20260905232644 34 72 0.0 0.0 0.00 0.00 0.00 51 1011.6
20260905232140 35 84 0.0 0.0 0.00 0.00 0.00 52 1011.6
20260905231635 35 86 0.0 0.0 0.00 0.00 0.00 51 1011.6
20260905231132 35 68 0.0 0.0 0.00 0.00 0.00 50 1011.7
20260905230627 35 68 0.0 0.0 0.00 0.00 0.00 49 1011.8
20260905230125 35 68 0.0 0.0 0.00 0.00 0.00 48 1011.8
20260905225624 35 68 0.0 0.0 0.00 0.00 0.00 46 1011.8
20260905225120 35 71 0.0 0.0 0.00 0.00 0.00 48 1011.5
20260905224614 35 68 0.0 0.0 0.00 0.00 0.00 46 1011.6
20260905224113 35 86 0.0 0.0 0.00 0.00 0.00 49 1011.7
20260905223611 35 86 0.0 0.0 0.00 0.00 0.00 47 1011.7
20260905223107 35 74 0.0 0.0 0.00 0.00 0.00 46 1011.6
20260905222607 35 106 0.0 0.0 0.00 0.00 0.00 47 1011.6
20260905222102 35 140 0.0 0.0 0.00 0.00 0.00 46 1012.1
20260905221558 35 103 0.0 0.0 0.00 0.00 0.00 46 1011.8
20260905221054 35 75 0.0 3.2 0.00 0.00 0.00 46 1011.6
20260905220549 35 68 1.6 3.2 0.00 0.00 0.00 46 1011.8
20260905220045 35 36 3.2 4.8 0.00 0.00 0.00 46 1011.9
20260905215544 35 54 1.6 4.8 0.00 0.00 0.00 46 1011.8
20260905215041 36 61 1.6 3.2 0.00 0.00 0.00 46 1011.9
20260905214537 35 53 0.0 0.0 0.00 0.00 0.00 45 1012.0
20260905214031 35 109 0.0 0.0 0.00 0.00 0.00 48 1012.1
20260905213527 35 50 1.6 4.8 0.00 0.00 0.00 46 1012.3
20260905213022 36 45 0.0 0.0 0.00 0.00 0.00 45 1012.3
20260905212517 36 71 0.0 0.0 0.00 0.00 0.00 48 1012.4
20260905212017 36 65 0.0 0.0 0.00 0.00 0.00 47 1012.4
20260905211512 36 72 0.0 0.0 0.00 0.00 0.00 47 1012.5
20260905211008 35 70 0.0 3.2 0.00 0.00 0.00 46 1012.8
20260905210503 35 71 0.0 1.6 0.00 0.00 0.00 47 1012.8
20260905210003 36 67 0.0 0.0 0.00 0.00 0.00 47 1012.9
20260905205457 35 54 0.0 1.6 0.00 0.00 0.00 47 1012.9
20260905204956 35 71 0.0 1.6 0.00 0.00 0.00 47 1012.8
20260905204451 35 48 3.2 4.8 0.00 0.00 0.00 47 1013.0
20260905203951 36 20 1.6 3.2 0.00 0.00 0.00 46 1013.0
20260905203446 36 134 1.6 1.6 0.00 0.00 0.00 46 1013.2
20260905202942 36 71 0.0 1.6 0.00 0.00 0.00 46 1013.0
20260905202437 36 66 0.0 0.0 0.00 0.00 0.00 46 1013.1
20260905201932 36 68 1.6 1.6 0.00 0.00 0.00 45 1013.2
20260905201427 36 98 0.0 0.0 0.00 0.00 0.00 45 1013.1
20260905200927 36 75 0.0 0.0 0.00 0.00 0.00 46 1013.5
20260905200423 36 77 0.0 0.0 0.00 0.00 0.00 47 1013.4
20260905195921 36 71 0.0 0.0 0.00 0.00 0.00 48 1013.3
20260905195416 36 72 0.0 0.0 0.00 0.00 0.00 47 1013.5
20260905194912 35 74 0.0 0.0 0.00 0.00 0.00 48 1013.5
20260905194406 35 56 0.0 3.2 0.00 0.00 0.00 48 1013.6
20260905193905 35 67 1.6 3.2 0.00 0.00 0.00 49 1013.7
20260905193400 35 47 0.0 0.0 0.00 0.00 0.00 50 1013.8
20260905192856 35 61 0.0 1.6 0.00 0.00 0.00 51 1013.9
20260905192352 35 65 1.6 4.8 0.00 0.00 0.00 51 1013.9
20260905191851 35 28 0.0 0.0 0.00 0.00 0.00 51 1013.8
20260905191351 35 64 0.0 0.0 0.00 0.00 0.00 51 1013.9
20260905190849 35 69 0.0 0.0 0.00 0.00 0.00 50 1013.8
20260905190342 35 50 0.0 0.0 0.00 0.00 0.00 52 1014.1
20260905185841 35 74 0.0 0.0 0.00 0.00 0.00 51 1014.0
20260905185337 35 75 0.0 0.0 0.00 0.00 0.00 52 1013.9
20260905184835 35 80 0.0 0.0 0.00 0.00 0.00 51 1014.1
20260905184335 35 80 0.0 0.0 0.00 0.00 0.00 51 1014.0
20260905183833 35 80 0.0 0.0 0.00 0.00 0.00 51 1014.1
20260905183329 35 89 0.0 0.0 0.00 0.00 0.00 49 1014.1
20260905182830 36 93 0.0 0.0 0.00 0.00 0.00 47 1014.2
20260905182329 35 105 0.0 0.0 0.00 0.00 0.00 49 1014.4
20260905181825 35 89 0.0 0.0 0.00 0.00 0.00 48 1014.2
20260905181318 35 101 0.0 0.0 0.00 0.00 0.00 49 1014.4
20260905180817 36 127 0.0 0.0 0.00 0.00 0.00 48 1014.5
20260905180313 36 71 0.0 0.0 0.00 0.00 0.00 50 1014.6
20260905175808 35 82 0.0 0.0 0.00 0.00 0.00 52 1014.7
20260905175306 36 74 0.0 0.0 0.00 0.00 0.00 52 1014.6